Date String (YYYY-MM-DD hh:mm:ss) UTC,Instrument flags,Ambient pressure (hPa),Sample flow (lpm),Bypass flow (lpm),Sample temperature (°C),Ambient temperature (°C),ASC tube jacket temperature (°C),LED temperature (°C),Box temperature (°C),Sample RH (%),Span deviation,Mass concentration (μg/m³),Mass concentration (μg/m³),Mass concentration (μg/m³)
DateTimeUTC,F1_M11,P_M11,Q1_M11,Q2_M11,T1_M11,T2_M11,T3_M11,T4_M11,T5_M11,U1_M11,ZSPAN_M11,X0_M11,X2_M11,X1_M11
2021-10-07 05:00:00,,0825.9,4.99,0.00,29.7,26.5,00.0,38.9,31.1,14.8,0000.0,0002.15,0001.14,0001.01
2021-10-07 05:01:00,,0826.0,5.01,0.00,29.6,26.9,00.0,38.8,31.1,15.0,0000.0,0002.11,0001.13,0001.01
2021-10-07 05:02:00,,0825.9,4.99,0.00,29.6,27.3,00.0,38.8,31.2,15.0,0000.0,0002.34,0001.13,0001.02
2021-10-07 05:03:00,,0825.9,5.01,0.00,29.6,27.6,00.0,38.8,31.2,15.0,0000.0,0002.95,0001.14,0001.02
2021-10-07 05:04:00,,0825.9,4.99,0.00,29.6,27.9,00.0,38.8,31.3,15.0,0000.0,0003.01,0001.16,0001.03
2021-10-07 05:05:00,,0826.0,4.99,0.00,29.6,28.1,00.0,38.8,31.3,15.0,0000.0,0003.12,0001.16,0001.02
2021-10-07 05:06:00,,0826.0,5.00,0.00,29.7,28.3,00.0,38.8,31.4,15.0,0000.0,0003.11,0001.16,0001.01
2021-10-07 05:07:00,,0826.1,5.01,0.00,29.7,28.5,00.0,38.8,31.5,15.0,0000.0,0003.09,0001.16,0001.02
2021-10-07 05:08:00,,0826.0,4.99,0.00,29.7,28.6,00.0,38.8,31.5,15.0,0000.0,0003.15,0001.15,0001.01
2021-10-07 05:09:00,,0826.0,4.99,0.00,29.7,28.7,00.0,38.8,31.5,15.0,0000.0,0003.03,0001.17,0001.03
2021-10-07 05:10:00,,0826.0,5.00,0.00,29.8,28.8,00.0,38.8,31.6,14.8,0000.0,0002.61,0001.18,0001.04
2021-10-07 05:11:00,,0826.0,5.00,0.00,29.8,28.8,00.0,38.8,31.6,14.9,0000.0,0002.55,0001.17,0001.04
2021-10-07 05:12:00,,0826.0,5.00,0.00,29.8,28.9,00.0,38.8,31.7,15.0,0000.0,0002.67,0001.21,0001.04
2021-10-07 05:13:00,,0826.0,5.01,0.00,29.9,29.0,00.0,38.8,31.7,15.2,0000.0,0002.41,0001.21,0001.04
2021-10-07 05:14:00,,0826.0,5.00,0.00,29.9,29.0,00.0,38.9,31.7,15.2,0000.0,0003.19,0001.22,0001.04
2021-10-07 05:15:00,,0826.0,5.00,0.00,29.9,29.1,00.0,38.9,31.8,15.3,0000.0,0003.62,0001.22,0001.04
2021-10-07 05:16:00,,0826.0,4.99,0.00,29.9,29.1,00.0,38.9,31.8,15.2,0000.0,0003.53,0001.21,0001.04
2021-10-07 05:17:00,,0826.1,4.99,0.00,30.0,29.1,00.0,38.9,31.8,15.1,0000.0,0003.58,0001.23,0001.04
2021-10-07 05:18:00,,0826.0,4.99,0.00,30.0,29.2,00.0,38.9,31.8,15.3,0000.0,0003.72,0001.25,0001.03
2021-10-07 05:19:00,,0826.1,5.00,0.00,30.0,29.2,00.0,39.0,31.9,15.3,0000.0,0003.65,0001.25,0001.04
2021-10-07 05:20:00,,0826.2,5.00,0.00,30.1,29.2,00.0,39.0,31.9,15.3,0000.0,0003.75,0001.26,0001.04
2021-10-07 05:21:00,,0826.2,5.01,0.00,30.1,29.2,00.0,39.0,31.9,15.3,0000.0,0003.77,0001.25,0001.03
2021-10-07 05:22:00,,0826.2,5.01,0.00,30.0,27.6,00.0,39.0,31.5,15.4,0000.0,0003.73,0001.24,0001.04
2021-10-07 05:23:00,,0826.2,5.01,0.00,29.9,26.4,00.0,39.0,31.2,15.4,0000.0,0004.72,0001.21,0001.03
2021-10-07 05:24:00,,0826.2,5.00,0.00,29.8,26.5,00.0,39.0,31.1,15.6,0000.0,0005.09,0001.23,0001.03
2021-10-07 05:25:00,,0826.2,4.99,0.00,29.7,26.9,00.0,38.9,31.2,15.6,0000.0,0003.82,0001.27,0001.05
2021-10-07 05:26:00,,0826.2,5.01,0.00,29.7,27.3,00.0,38.9,31.2,15.7,0000.0,0004.03,0001.31,0001.06
2021-10-07 05:27:00,,0826.2,4.99,0.00,29.7,27.6,00.0,38.8,31.3,15.7,0000.0,0005.55,0001.36,0001.06
2021-10-07 05:28:00,,0826.1,5.01,0.00,29.7,27.9,00.0,38.8,31.3,15.7,0000.0,0005.56,0001.37,0001.06
2021-10-07 05:29:00,,0826.2,5.00,0.00,29.7,28.1,00.0,38.8,31.4,15.7,0000.0,0005.47,0001.36,0001.07
2021-10-07 05:30:00,,0826.2,5.00,0.00,29.7,28.3,00.0,38.8,31.4,15.7,0000.0,0005.42,0001.35,0001.07
2021-10-07 05:31:00,,0826.1,5.00,0.00,29.7,28.5,00.0,38.8,31.5,15.8,0000.0,0005.33,0001.35,0001.06
2021-10-07 05:32:00,,0826.2,5.01,0.00,29.8,28.6,00.0,38.8,31.5,15.8,0000.0,0005.39,0001.37,0001.07
2021-10-07 05:33:00,,0826.1,5.00,0.00,29.8,28.7,00.0,38.8,31.6,15.8,0000.0,0005.46,0001.39,0001.07
2021-10-07 05:34:00,,0826.2,5.00,0.00,29.8,28.8,00.0,38.8,31.6,15.8,0000.0,0004.96,0001.42,0001.07
2021-10-07 05:35:00,,0826.2,5.00,0.00,29.8,28.8,00.0,38.8,31.7,15.7,0000.0,0004.09,0001.41,0001.08
2021-10-07 05:36:00,,0826.2,5.00,0.00,29.9,28.9,00.0,38.9,31.7,15.7,0000.0,0003.98,0001.38,0001.08
2021-10-07 05:37:00,,0826.2,5.00,0.00,29.9,29.0,00.0,38.9,31.7,15.6,0000.0,0003.63,0001.35,0001.09
2021-10-07 05:38:00,,0826.2,4.99,0.00,29.9,29.0,00.0,38.9,31.7,15.5,0000.0,0002.13,0001.33,0001.10
2021-10-07 05:39:00,,0826.2,5.00,0.00,29.9,29.1,00.0,38.9,31.8,15.4,0000.0,0001.83,0001.32,0001.11
2021-10-07 05:40:00,,0826.2,5.00,0.00,30.0,29.1,00.0,39.0,31.8,15.5,0000.0,0001.94,0001.32,0001.11
2021-10-07 05:41:00,,0826.4,5.00,0.00,30.0,29.2,00.0,39.0,31.8,15.5,0000.0,0002.00,0001.36,0001.11
2021-10-07 05:42:00,,0826.2,5.01,0.00,30.0,29.2,00.0,39.0,31.9,15.5,0000.0,0002.08,0001.36,0001.12
2021-10-07 05:43:00,,0826.2,4.99,0.00,30.1,29.2,00.0,39.0,31.9,15.5,0000.0,0001.96,0001.33,0001.13
2021-10-07 05:44:00,,0826.3,5.01,0.00,30.1,29.3,00.0,39.0,31.9,15.5,0000.0,0001.93,0001.32,0001.13
2021-10-07 05:45:00,,0826.3,5.00,0.00,30.1,28.6,00.0,39.1,31.8,15.4,0000.0,0002.05,0001.38,0001.14
2021-10-07 05:46:00,,0826.3,5.01,0.00,29.9,26.6,00.0,39.0,31.2,15.5,0000.0,0002.11,0001.41,0001.13
2021-10-07 05:47:00,,0826.3,5.01,0.00,29.8,26.4,00.0,39.0,31.2,15.6,0000.0,0002.12,0001.42,0001.13
2021-10-07 05:48:00,,0826.3,5.00,0.00,29.7,26.7,00.0,39.0,31.2,15.8,0000.0,0002.20,0001.40,0001.12
2021-10-07 05:49:00,,0826.4,5.00,0.00,29.7,27.1,00.0,38.9,31.2,15.8,0000.0,0003.25,0001.40,0001.11
2021-10-07 05:50:00,,0826.4,4.99,0.00,29.7,27.5,00.0,38.9,31.3,16.0,0000.0,0003.29,0001.41,0001.12
2021-10-07 05:51:00,,0826.4,5.00,0.00,29.7,27.8,00.0,38.9,31.3,16.0,0000.0,0003.27,0001.45,0001.11
2021-10-07 05:52:00,,0826.4,5.00,0.00,29.7,28.0,00.0,38.8,31.4,16.1,0000.0,0003.39,0001.49,0001.13
2021-10-07 05:53:00,,0826.4,5.00,0.00,29.7,28.2,00.0,38.8,31.4,16.0,0000.0,0003.38,0001.53,0001.14
2021-10-07 05:54:00,,0826.4,4.99,0.00,29.7,28.4,00.0,38.8,31.5,16.1,0000.0,0003.54,0001.57,0001.15
2021-10-07 05:55:00,,0826.4,5.00,0.00,29.8,28.5,00.0,38.8,31.5,16.1,0000.0,0004.84,0001.64,0001.16
2021-10-07 05:56:00,,0826.3,5.00,0.00,29.8,28.6,00.0,38.8,31.6,16.1,0000.0,0005.74,0001.65,0001.17
2021-10-07 05:57:00,,0826.4,5.02,0.00,29.8,28.7,00.0,38.8,31.6,16.1,0000.0,0007.49,0001.68,0001.19
2021-10-07 05:58:00,,0826.3,4.99,0.00,29.8,28.8,00.0,38.9,31.6,16.1,0000.0,0008.23,0001.71,0001.22
2021-10-07 05:59:00,,0826.3,5.00,0.00,29.9,28.9,00.0,38.9,31.7,16.1,0000.0,0008.41,0001.81,0001.26
